Glasgow, KY

10:38 AM CST on January 19, 2017 (GMT -0600)
Glasgow Municipal

Weather History for KGLW - December, 2013

Change the Weather History Date:

Saturday, December 14, 2013

  Actual Average Record
Temperature  
Mean Temperature 40 °F -  
Max Temperature 47 °F 47 °F 70 °F (2015)
Min Temperature 33 °F 29 °F 0 °F (2010)
Degree Days  
Heating Degree Days 25    
Moisture  
Dew Point 39 °F    
Average Humidity 94    
Maximum Humidity 100    
Minimum Humidity 61    
Precipitation  
Precipitation 0.51 in - - ()
Sea Level Pressure  
Sea Level Pressure 29.88 in    
Wind  
Wind Speed 7 mph (SW)    
Max Wind Speed 15 mph    
Max Gust Speed 26 mph    
Visibility 7 miles    
Events Rain    
Averages and records for this station are not official NWS values.
T = Trace of Precipitation, MM = Missing Value Source: NWS Daily Summary

Daily Weather History Graph

Daily Weather History Graph

Search for Another Location

Airport or City:

Trip Planner

Search our weather history database for the weather conditions in past years. The results will help you decide how hot, cold, wet, or windy it might be!

Date:

Astronomy

Dec. 14, 2013 Rise Set
Actual Time 6:49 AM CST 4:27 PM CST
Civil Twilight 6:20 AM CST 4:56 PM CST
Nautical Twilight 5:47 AM CST 5:29 PM CST
Astronomical Twilight 5:16 AM CST 6:01 PM CST
Moon 2:47 PM CST (12/14) 4:11 AM CST (12/14)
Length of Visible Light 10h 36m
Length of Day
9h 38m
Waxing Gibbous, 94% of the Moon is Illuminated
Dec 14
Waxing Gibbous
Dec 17
Full
Dec 25
Last Quarter
Jan 1
New
Jan 7
First Quarter

Hourly Weather History & Observations

Time (CST) Temp. Windchill Dew Point Humidity Pressure Visibility Wind Dir Wind Speed Gust Speed Precip Events Conditions
12:15 AM 36.7 °F - 31.1 °F 80% 30.08 in 10.0 mi Calm Calm - N/A   Overcast
12:35 AM 39.6 °F 33.5 °F 27.1 °F 61% 30.08 in 10.0 mi South 9.2 mph 26.5 mph N/A Rain Light Rain
12:55 AM 40.1 °F 35.3 °F 30.2 °F 68% 30.04 in 10.0 mi SE 6.9 mph - 0.01 in Rain Rain
1:15 AM 39.9 °F 34.5 °F 33.4 °F 78% 30.02 in 10.0 mi South 8.1 mph - 0.01 in Rain Rain
1:35 AM 40.6 °F 38.6 °F 34.5 °F 79% 30.00 in 10.0 mi SE 3.5 mph - 0.02 in Rain Light Rain
1:55 AM 41.0 °F 35.8 °F 34.3 °F 77% 29.99 in 10.0 mi SE 8.1 mph - 0.02 in Rain Light Rain
2:15 AM 41.9 °F 37.5 °F 32.2 °F 68% 29.95 in 10.0 mi East 6.9 mph - 0.01 in Rain Light Rain
2:35 AM 41.2 °F 36.6 °F 31.5 °F 68% 29.96 in 10.0 mi SE 6.9 mph - 0.01 in Rain Light Rain
2:55 AM 41.0 °F 35.8 °F 31.6 °F 69% 29.96 in 10.0 mi ESE 8.1 mph - 0.02 in Rain Light Rain
3:15 AM 40.8 °F 38.8 °F 32.0 °F 71% 29.97 in 10.0 mi SE 3.5 mph - 0.01 in Rain Light Rain
3:35 AM 40.6 °F - 32.5 °F 73% 29.97 in 10.0 mi Calm Calm - 0.02 in Rain Light Rain
3:55 AM 41.0 °F 39.0 °F 32.4 °F 71% 29.97 in 10.0 mi SSE 3.5 mph - 0.04 in Rain Rain
4:15 AM 40.5 °F - 33.4 °F 76% 29.95 in 10.0 mi Calm Calm - 0.02 in Rain Light Rain
4:35 AM 40.3 °F - 34.5 °F 80% 29.95 in 10.0 mi Calm Calm - 0.03 in Rain Light Rain
4:55 AM 40.3 °F 37.1 °F 35.8 °F 84% 29.95 in 10.0 mi SSE 4.6 mph - 0.03 in Rain Light Rain
5:15 AM 40.5 °F 37.3 °F 36.7 °F 86% 29.93 in 10.0 mi South 4.6 mph - 0.01 in Rain Light Rain
5:35 AM 41.0 °F 37.1 °F 37.6 °F 88% 29.91 in 10.0 mi SE 5.8 mph - 0.03 in Rain Rain
5:55 AM 41.4 °F 36.2 °F 39.4 °F 93% 29.89 in 7.0 mi SE 8.1 mph - 0.07 in Rain Light Rain
6:15 AM 41.9 °F 36.3 °F 41.7 °F 99% 29.89 in 7.0 mi SE 9.2 mph - 0.03 in Rain Light Rain
6:35 AM 41.9 °F 35.9 °F 41.9 °F 100% 29.88 in 7.0 mi SE 10.4 mph 18.4 mph 0.07 in Rain Light Rain
6:55 AM 42.3 °F 36.8 °F 42.3 °F 100% 29.87 in 7.0 mi SE 9.2 mph - 0.12 in Rain Rain
7:15 AM 42.4 °F 37.0 °F 42.4 °F 100% 29.84 in 5.0 mi SE 9.2 mph - 0.03 in   Overcast
7:35 AM 43.2 °F 37.4 °F 43.0 °F 99% 29.81 in 10.0 mi ESE 10.4 mph - 0.05 in Rain Light Rain
7:55 AM 43.3 °F 38.6 °F 43.0 °F 99% 29.83 in 5.0 mi SE 8.1 mph - 0.08 in Rain Rain
8:15 AM 43.0 °F - 43.0 °F 100% 29.83 in 3.0 mi Calm Calm - 0.04 in   Overcast
8:35 AM 43.2 °F 39.0 °F 43.2 °F 100% 29.83 in 4.0 mi SSE 6.9 mph - 0.08 in Rain Light Rain
8:55 AM 43.7 °F 41.1 °F 43.7 °F 100% 29.83 in 4.0 mi South 4.6 mph - 0.09 in   Heavy Drizzle
9:15 AM 43.7 °F 40.3 °F 43.7 °F 100% 29.82 in 2.5 mi SSE 5.8 mph - N/A   Drizzle
9:35 AM 44.1 °F 40.8 °F 44.1 °F 100% 29.81 in 2.5 mi South 5.8 mph - 0.01 in   Drizzle
9:55 AM 44.4 °F 41.2 °F 44.4 °F 100% 29.81 in 2.5 mi South 5.8 mph - 0.01 in   Heavy Drizzle
10:15 AM 44.8 °F 41.6 °F 44.8 °F 100% 29.81 in 2.5 mi South 5.8 mph - 0.01 in   Drizzle
10:35 AM 45.0 °F 42.6 °F 45.0 °F 100% 29.80 in 3.0 mi SSW 4.6 mph - 0.01 in   Light Drizzle
10:55 AM 45.1 °F 42.0 °F 45.1 °F 100% 29.79 in 2.0 mi SW 5.8 mph - 0.01 in   Overcast
11:15 AM 45.5 °F 43.2 °F 45.5 °F 100% 29.78 in 1.5 mi SSW 4.6 mph - N/A Rain Rain
11:35 AM 45.7 °F 41.5 °F 45.7 °F 100% 29.77 in 1.8 mi SW 8.1 mph - N/A   Overcast
11:55 AM 46.4 °F 41.9 °F 46.4 °F 100% 29.76 in 1.8 mi SW 9.2 mph - N/A   Overcast
12:15 PM 46.9 °F - 46.9 °F 100% 29.75 in 2.5 mi WSW 11.5 mph 16.1 mph N/A   Overcast
12:35 PM 47.3 °F - 47.3 °F 100% 29.75 in 4.0 mi WSW 11.5 mph - N/A   Overcast
12:55 PM 47.1 °F - 47.1 °F 100% 29.75 in 5.0 mi WSW 15.0 mph 20.7 mph N/A   Overcast
1:15 PM 46.6 °F - 46.6 °F 100% 29.76 in 3.0 mi WSW 12.7 mph 19.6 mph N/A   Overcast
1:35 PM 45.7 °F 40.6 °F 45.7 °F 100% 29.76 in 1.2 mi West 10.4 mph 19.6 mph N/A Rain Light Rain
1:55 PM 44.8 °F 39.4 °F 44.8 °F 100% 29.76 in 1.8 mi West 10.4 mph 16.1 mph N/A   Overcast
2:15 PM 44.4 °F 39.5 °F 44.4 °F 100% 29.77 in 1.8 mi West 9.2 mph - N/A   Overcast
2:35 PM 44.1 °F 39.0 °F 44.1 °F 100% 29.78 in 2.5 mi West 9.2 mph - N/A   Overcast
2:55 PM 43.7 °F 38.1 °F 43.7 °F 100% 29.79 in 4.0 mi West 10.4 mph 17.3 mph 0.01 in   Overcast
3:15 PM 43.5 °F 39.4 °F 43.5 °F 100% 29.80 in 2.5 mi West 6.9 mph 16.1 mph N/A   Overcast
3:35 PM 43.0 °F 37.7 °F 43.0 °F 100% 29.80 in 1.8 mi West 9.2 mph - N/A   Overcast
3:55 PM 42.3 °F 36.8 °F 42.3 °F 100% 29.81 in 1.8 mi West 9.2 mph 17.3 mph N/A   Overcast
4:35 PM 41.2 °F 36.0 °F 41.2 °F 100% 29.83 in 10.0 mi WNW 8.1 mph - N/A   Overcast
4:55 PM 40.3 °F 33.0 °F 40.3 °F 100% 29.84 in 10.0 mi WNW 12.7 mph 18.4 mph N/A   Overcast
5:15 PM 39.6 °F 34.0 °F 39.6 °F 100% 29.86 in 10.0 mi WNW 8.1 mph 21.9 mph N/A   Overcast
5:35 PM 38.5 °F 31.6 °F 38.5 °F 100% 29.87 in 10.0 mi WNW 10.4 mph - N/A   Overcast
5:55 PM 37.8 °F 30.7 °F 37.4 °F 99% 29.87 in 10.0 mi West 10.4 mph 16.1 mph N/A   Overcast
6:15 PM 37.4 °F 29.8 °F 37.2 °F 99% 29.88 in 10.0 mi WNW 11.5 mph 17.3 mph N/A   Overcast
6:35 PM 36.7 °F 28.4 °F 36.5 °F 99% 29.90 in 10.0 mi WNW 12.7 mph 18.4 mph N/A   Overcast
6:55 PM 36.3 °F 29.5 °F 36.3 °F 100% 29.90 in 10.0 mi WNW 9.2 mph - N/A   Overcast
7:15 PM 36.0 °F 29.0 °F 36.0 °F 100% 29.91 in 10.0 mi West 9.2 mph 16.1 mph N/A   Overcast
7:35 PM 36.0 °F 29.6 °F 36.0 °F 100% 29.93 in 10.0 mi WNW 8.1 mph 17.3 mph N/A   Overcast
7:55 PM 35.8 °F 28.8 °F 35.8 °F 100% 29.93 in 10.0 mi WNW 9.2 mph - N/A   Overcast
8:15 PM 35.2 °F 28.8 °F 35.2 °F 100% 29.93 in 7.0 mi West 8.1 mph - N/A Rain Rain
8:35 PM 35.2 °F 29.5 °F 35.2 °F 100% 29.94 in 7.0 mi West 6.9 mph - N/A   Drizzle
8:55 PM 35.1 °F 28.6 °F 35.1 °F 100% 29.95 in 10.0 mi West 8.1 mph - N/A   Overcast
9:15 PM 34.9 °F 28.3 °F 34.9 °F 100% 29.95 in 10.0 mi West 8.1 mph - N/A   Overcast
9:35 PM 34.9 °F 27.7 °F 34.9 °F 100% 29.95 in 10.0 mi WNW 9.2 mph - N/A   Overcast
9:55 PM 34.9 °F 27.7 °F 34.9 °F 100% 29.95 in 10.0 mi WNW 9.2 mph 19.6 mph N/A   Overcast
10:15 PM 34.7 °F 27.5 °F 34.7 °F 100% 29.96 in 7.0 mi WNW 9.2 mph - N/A   Overcast
10:35 PM 34.7 °F 26.4 °F 34.7 °F 100% 29.96 in 7.0 mi WNW 11.5 mph - N/A   Overcast
10:55 PM 34.2 °F 25.7 °F 34.2 °F 100% 29.97 in 5.0 mi WNW 11.5 mph - N/A   Overcast
11:15 PM 34.0 °F 25.0 °F 34.0 °F 100% 29.98 in 7.0 mi WNW 12.7 mph 17.3 mph N/A   Overcast
11:35 PM 33.8 °F 26.4 °F 33.3 °F 98% 29.98 in 10.0 mi WNW 9.2 mph - N/A   Overcast
11:55 PM 33.6 °F 24.6 °F 33.3 °F 99% 29.98 in 7.0 mi WNW 12.7 mph 17.3 mph N/A   Overcast